Tracking 30417 objects as of 17-May-2025
HD Live streaming from Space Station
objects crossing your sky now

STARLINK-5636

Track STARLINK-5636 now!
10-day predictions
STARLINK-5636 is classified as:


NORAD ID: 55454
Int'l Code: 2023-015F
Perigee: 565.2 km
Apogee: 567.2 km
Inclination: 43.0 °
Period: 95.8 minutes
Semi major axis: 6937 km
RCS: Unknown
Launch date: February 2, 2023
Source: United States (US)
Launch site: AIR FORCE EASTERN TEST RANGE (AFETR)
Your satellite tracking list
Your tracking list is empty




NASA's NSSDC Master Catalog

Two Line Element Set (TLE):
1 55454U 23015F   25136.41422406  .00000347  00000-0  40770-4 0  9990
2 55454  43.0038 141.4997 0001426 277.2061  82.8619 15.02542071126039
Source of the keplerian elements: AFSPC